This is the latest recevied weather packets stored in our database for station/object OK2ILA-6. If no packets are shown the sender has not sent any weather packets the latest 10 day(s).
| Time | Temp. | Humidity | Pressure | Rain* | Wind** | Luminosity | Snow |
|---|---|---|---|---|---|---|---|
| 1788505802 | 21.11° C | 68% | 1016.7 hPa | - | - | - | - |
| 1788504003 | 20.56° C | 70% | 1016.9 hPa | - | - | - | - |
| 1788503403 | 20° C | 72% | 1017 hPa | - | - | - | - |
| 1788502802 | 20° C | 72% | 1017.2 hPa | - | - | - | - |
| 1788502203 | 19.44° C | 74% | 1017 hPa | - | - | - | - |
| 1788501603 | 18.89° C | 74% | 1017 hPa | - | - | - | - |
| 1788500403 | 18.89° C | 76% | 1016.8 hPa | - | - | - | - |
| 1788499802 | 18.33° C | 76% | 1016.6 hPa | - | - | - | - |
| 1788499203 | 18.89° C | 76% | 1016.6 hPa | - | - | - | - |
| 1788498603 | 18.89° C | 75% | 1016.7 hPa | - | - | - | - |
| 1788498003 | 18.89° C | 75% | 1016.5 hPa | - | - | - | - |
| 1788497402 | 18.33° C | 76% | 1016.6 hPa | - | - | - | - |
| 1788496802 | 18.33° C | 76% | 1016.6 hPa | - | - | - | - |
| 1788496203 | 18.33° C | 76% | 1016.7 hPa | - | - | - | - |
| 1788495603 | 18.33° C | 76% | 1016.8 hPa | - | - | - | - |
| 1788495003 | 18.33° C | 76% | 1016.6 hPa | - | - | - | - |
| 1788494402 | 18.33° C | 75% | 1016.8 hPa | - | - | - | - |
| 1788493203 | 18.33° C | 75% | 1016.8 hPa | - | - | - | - |
| 1788492603 | 18.33° C | 76% | 1016.8 hPa | - | - | - | - |
| 1788492003 | 17.78° C | 76% | 1016.9 hPa | - | - | - | - |
| 1788474603 | 18.89° C | 68% | 1017.8 hPa | - | - | - | - |
| 1788474003 | 18.89° C | 68% | 1017.6 hPa | - | - | - | - |
| 1788471002 | 18.33° C | 70% | 1017.7 hPa | - | - | - | - |
| 1788469203 | 18.33° C | 70% | 1017.6 hPa | - | - | - | - |
| 1788468603 | 17.78° C | 70% | 1017.8 hPa | - | - | - | - |
* Rain since midnight (hover to see other rain measurements)
** Current wind speed in m/s (hover to see current wind gust speed)